Content
SEND FEEDBACK

Daily
Averages
Monthly
Summary
United States of America

WAHWEAP, ARIZONA


Home > North America > United States > Arizona
Elevation: 3703 feet     Latitude: 36 59N     Longitude: 111 29W

WEATHER
 
SELECT A DAY
Number of Records: 194,728;   Date Range: 1/1/95 - 7/29/14
 
SHARE

PRINT THIS DATA

[ ← Previous Day ]
WEATHER ALMANAC - AUGUST 14, 2013
[ Next Day → ]
[ °C ]   °F
Weather ElementAverageHighLow
Temperature85.2 °F97 °F (1:53 pm)71.1 °F (5:53 am)
Dewpoint32.8 °F39.9 °F (8:53 pm)24.1 °F (10:53 am)
Humidity15.9 %24 % (3:53 am)9 % (10:53 am)
Barometer29.86 in29.94 in (8:53 am)29.79 in (5:53 pm)
Wind Speed4.9 mph11.5 mph (7:53 pm)
Weather ElementAverage
Visibility10 mi
Wind DirectionESE (126.5 °)

Weather ElementTotal
Precipitation---
Cooling Degree Days19.1 (Base 65)
Growing Degree Days34.1 (Base 50)
Averaged from 23 records on August 14, 2013
WEATHER CONDITIONS BREAKOUT
WIND DIRECTION BREAKOUT
WEATHER BY HOUR - AUGUST 14, 2013
[ °C ]   °F
Local TimeTemperatureDewpointHumidityBarometerVisibilityWind DirectionWind SpeedGust SpeedPrecipitationEventsConditions
1:53 AM78.1 °F33.1 °F19 %29.86 in10.0 miSW (220°)4.6 mphClear
2:53 AM73.9 °F34.0 °F23 %29.88 in10.0 miSSE (150°)5.8 mphClear
3:53 AM73.0 °F34.0 °F24 %29.88 in10.0 miCalmClear
4:53 AM75.9 °F30.9 °F19 %29.88 in10.0 miNW (320°)3.5 mphClear
5:53 AM71.1 °F32.0 °F24 %29.90 in10.0 miSE (130°)4.6 mphClear
6:53 AM75.0 °F35.1 °F23 %29.93 in10.0 miCalmClear
7:53 AM79.0 °F28.9 °F16 %29.93 in10.0 miCalmClear
8:53 AM82.0 °F27.0 °F13 %29.94 in10.0 miWest (270°)3.5 mphClear
9:53 AM84.9 °F27.0 °F12 %29.94 in10.0 miCalmClear
10:53 AM89.1 °F24.1 °F9 %29.93 in10.0 miVariable5.8 mphClear
11:53 AM91.9 °F24.1 °F9 %29.90 in10.0 miNorth (350°)6.9 mphClear
12:53 PM95.0 °F30.0 °F10 %29.86 in10.0 miNNE (30°)8.1 mphClear
1:53 PM97.0 °F33.1 °F11 %29.84 in9.0 miNorth (360°)8.1 mphClear
2:53 PM97.0 °F35.1 °F11 %29.83 in10.0 miNNE (20°)9.2 mphClear
3:53 PM96.1 °F36.0 °F12 %29.82 in10.0 miNE (50°)9.2 mphClear
4:53 PM93.9 °F36.0 °F13 %29.80 in10.0 miEast (80°)6.9 mphScattered Clouds
5:53 PM93.0 °F37.0 °F14 %29.79 in10.0 miESE (110°)3.5 mphClear
6:53 PM91.0 °F39.0 °F16 %29.79 in10.0 miESE (120°)3.5 mphClear
7:53 PM88.0 °F37.9 °F17 %29.80 in10.0 miSSE (150°)11.5 mphClear
8:53 PM84.0 °F39.9 °F21 %29.83 in10.0 miSE (130°)4.6 mphClear
9:53 PM84.9 °F39.9 °F20 %29.83 in10.0 miSSW (200°)8.1 mphClear
10:53 PM84.0 °F33.1 °F16 %29.84 in10.0 miSW (220°)5.8 mphClear
11:53 PM82.0 °F28.0 °F14 %29.85 in10.0 miCalmClear
Hourly data recorded from KPGA, located miles away from Wahweap, Arizona







STORIES FROM OUR PARTNERS